| time (UTC) | temp F | wind direction | speed MPH | gust MPH | rain 1hr in | rain 24hr in | rain mn in | humidity % | barometer mb |
| 20260903233340 | 70 | 71 | 0.0 | 0.0 | 0.00 | 0.00 | 0.00 | 72 | 1012.7 |
| 20260903232841 | 70 | 71 | 0.0 | 1.0 | 0.00 | 0.00 | 0.00 | 72 | 1012.5 |
| 20260903232340 | 70 | 71 | 0.0 | 2.0 | 0.00 | 0.00 | 0.00 | 72 | 1012.4 |
| 20260903231340 | 70 | 80 | 0.0 | 4.0 | 0.00 | 0.00 | 0.00 | 73 | 1012.3 |
| 20260903230841 | 70 | 47 | 1.0 | 4.0 | 0.00 | 0.00 | 0.00 | 73 | 1012.1 |
| 20260903230340 | 70 | 66 | 0.0 | 2.0 | 0.00 | 0.00 | 0.00 | 74 | 1012.1 |
| 20260903225840 | 70 | 73 | 0.0 | 2.0 | 0.00 | 0.00 | 0.00 | 74 | 1012.1 |
| 20260903225339 | 70 | 75 | 0.0 | 2.0 | 0.00 | 0.00 | 0.00 | 73 | 1012.1 |
| 20260903224338 | 71 | 61 | 2.0 | 3.0 | 0.00 | 0.00 | 0.00 | 74 | 1011.9 |
| 20260903224108 | 71 | 63 | 1.0 | 4.0 | 0.00 | 0.00 | 0.00 | 75 | 1011.8 |
| 20260903223338 | 71 | 76 | 1.0 | 4.0 | 0.00 | 0.00 | 0.00 | 73 | 1011.9 |
| 20260903222841 | 70 | 89 | 1.0 | 3.0 | 0.00 | 0.00 | 0.00 | 73 | 1011.8 |
| 20260903222339 | 70 | 86 | 1.0 | 3.0 | 0.00 | 0.00 | 0.00 | 74 | 1011.7 |
| 20260903221838 | 71 | 68 | 2.0 | 4.0 | 0.00 | 0.00 | 0.00 | 74 | 1011.9 |
| 20260903221338 | 71 | 45 | 2.0 | 4.0 | 0.00 | 0.00 | 0.00 | 74 | 1011.8 |
| 20260903220837 | 71 | 61 | 2.0 | 5.0 | 0.00 | 0.00 | 0.00 | 76 | 1011.8 |
| 20260903215837 | 71 | 69 | 3.0 | 6.0 | 0.00 | 0.00 | 0.00 | 78 | 1011.6 |
| 20260903215338 | 71 | 69 | 4.0 | 6.0 | 0.00 | 0.00 | 0.00 | 78 | 1011.6 |
| 20260903214838 | 71 | 79 | 3.0 | 5.0 | 0.00 | 0.00 | 0.00 | 76 | 1011.7 |
| 20260903214339 | 72 | 72 | 3.0 | 5.0 | 0.00 | 0.00 | 0.00 | 73 | 1011.8 |
| 20260903214109 | 71 | 75 | 2.0 | 4.0 | 0.00 | 0.00 | 0.00 | 75 | 1011.9 |
| 20260903213336 | 72 | 76 | 2.0 | 4.0 | 0.00 | 0.00 | 0.00 | 75 | 1011.9 |
| 20260903213112 | 72 | 73 | 2.0 | 5.0 | 0.00 | 0.00 | 0.00 | 69 | 1011.9 |
| 20260903212338 | 73 | 76 | 3.0 | 5.0 | 0.00 | 0.00 | 0.00 | 67 | 1012.0 |
| 20260903211835 | 73 | 61 | 2.0 | 4.0 | 0.00 | 0.00 | 0.00 | 65 | 1012.3 |
| 20260903211335 | 73 | 66 | 3.0 | 4.0 | 0.00 | 0.00 | 0.00 | 64 | 1012.4 |
| 20260903210837 | 73 | 89 | 2.0 | 4.0 | 0.00 | 0.00 | 0.00 | 67 | 1012.4 |
| 20260903210332 | 74 | 86 | 2.0 | 4.0 | 0.00 | 0.00 | 0.00 | 66 | 1012.5 |
| 20260903205832 | 73 | 69 | 1.0 | 3.0 | 0.00 | 0.00 | 0.00 | 64 | 1012.5 |
| 20260903205334 | 73 | 59 | 1.0 | 4.0 | 0.00 | 0.00 | 0.00 | 69 | 1012.5 |
| 20260903204834 | 73 | 41 | 2.0 | 4.0 | 0.00 | 0.00 | 0.00 | 71 | 1012.5 |
| 20260903204332 | 73 | 99 | 2.0 | 4.0 | 0.00 | 0.00 | 0.00 | 68 | 1012.7 |
| 20260903203833 | 73 | 73 | 2.0 | 4.0 | 0.00 | 0.00 | 0.00 | 69 | 1012.7 |
| 20260903203333 | 72 | 72 | 1.0 | 3.0 | 0.00 | 0.00 | 0.00 | 69 | 1012.9 |
| 20260903202833 | 72 | 69 | 2.0 | 3.0 | 0.00 | 0.00 | 0.00 | 72 | 1012.9 |
| 20260903202332 | 72 | 73 | 2.0 | 4.0 | 0.00 | 0.00 | 0.00 | 75 | 1012.9 |
| 20260903201832 | 72 | 71 | 1.0 | 4.0 | 0.00 | 0.00 | 0.00 | 76 | 1013.0 |
| 20260903201334 | 72 | 55 | 1.0 | 4.0 | 0.00 | 0.00 | 0.00 | 76 | 1013.1 |
| 20260903200831 | 72 | 51 | 1.0 | 6.0 | 0.00 | 0.00 | 0.00 | 71 | 1013.2 |
| 20260903200332 | 73 | 79 | 3.0 | 6.0 | 0.00 | 0.00 | 0.00 | 72 | 1013.3 |
| 20260903195831 | 74 | 56 | 3.0 | 5.0 | 0.00 | 0.00 | 0.00 | 70 | 1013.4 |
| 20260903195329 | 73 | 85 | 2.0 | 3.0 | 0.00 | 0.00 | 0.00 | 73 | 1013.5 |
| 20260903194829 | 72 | 72 | 2.0 | 4.0 | 0.00 | 0.00 | 0.00 | 73 | 1013.5 |
| 20260903194330 | 71 | 78 | 2.0 | 4.0 | 0.00 | 0.00 | 0.00 | 76 | 1013.6 |
| 20260903193830 | 71 | 76 | 1.0 | 3.0 | 0.00 | 0.00 | 0.00 | 76 | 1013.8 |
| 20260903193329 | 72 | 58 | 1.0 | 2.0 | 0.00 | 0.00 | 0.00 | 74 | 1013.9 |
| 20260903192824 | 72 | 55 | 1.0 | 2.0 | 0.00 | 0.00 | 0.00 | 72 | 1014.1 |
| 20260903192323 | 72 | 25 | 0.0 | 2.0 | 0.00 | 0.00 | 0.00 | 71 | 1014.1 |
| 20260903191821 | 72 | 54 | 0.0 | 3.0 | 0.00 | 0.00 | 0.00 | 72 | 1014.3 |
| 20260903191547 | 72 | 4 | 0.0 | 3.0 | 0.00 | 0.00 | 0.00 | 70 | 1014.3 |
| 20260903190816 | 72 | 21 | 0.0 | 2.0 | 0.00 | 0.00 | 0.00 | 70 | 1014.4 |
| 20260903190316 | 71 | 317 | 0.0 | 2.0 | 0.00 | 0.00 | 0.00 | 72 | 1014.3 |
| 20260903185816 | 71 | 347 | 0.0 | 2.0 | 0.00 | 0.00 | 0.00 | 71 | 1014.3 |
| 20260903185314 | 71 | 21 | 0.0 | 5.0 | 0.00 | 0.00 | 0.00 | 70 | 1014.3 |
| 20260903184813 | 71 | 34 | 1.0 | 5.0 | 0.00 | 0.00 | 0.00 | 72 | 1014.3 |
| 20260903184545 | 72 | 47 | 1.0 | 2.0 | 0.00 | 0.00 | 0.00 | 71 | 1014.2 |
| 20260903183813 | 72 | 30 | 0.0 | 3.0 | 0.00 | 0.00 | 0.00 | 69 | 1014.2 |
| 20260903183315 | 72 | 38 | 1.0 | 3.0 | 0.00 | 0.00 | 0.00 | 71 | 1014.2 |
| 20260903182811 | 72 | 341 | 1.0 | 3.0 | 0.00 | 0.00 | 0.00 | 70 | 1014.2 |
| 20260903182310 | 71 | 278 | 1.0 | 3.0 | 0.00 | 0.00 | 0.00 | 76 | 1014.2 |
| 20260903181811 | 69 | 329 | 0.0 | 3.0 | 0.00 | 0.00 | 0.00 | 78 | 1014.1 |
| 20260903181312 | 69 | 52 | 0.0 | 3.0 | 0.00 | 0.00 | 0.00 | 80 | 1014.0 |
| 20260903180811 | 69 | 307 | 0.0 | 5.0 | 0.00 | 0.00 | 0.00 | 80 | 1013.8 |
| 20260903180311 | 69 | 32 | 3.0 | 5.0 | 0.00 | 0.00 | 0.00 | 81 | 1013.8 |
| 20260903180040 | 69 | 40 | 0.0 | 4.0 | 0.00 | 0.00 | 0.00 | 81 | 1013.8 |
| 20260903175312 | 68 | 30 | 2.0 | 6.0 | 0.00 | 0.00 | 0.00 | 80 | 1013.8 |
| 20260903174812 | 69 | 337 | 2.0 | 6.0 | 0.00 | 0.00 | 0.00 | 82 | 1013.6 |
| 20260903174313 | 69 | 28 | 2.0 | 6.0 | 0.00 | 0.00 | 0.00 | 84 | 1013.5 |
| 20260903173812 | 69 | 32 | 2.0 | 6.0 | 0.00 | 0.00 | 0.00 | 82 | 1013.3 |
| 20260903173311 | 69 | 355 | 2.0 | 6.0 | 0.00 | 0.00 | 0.00 | 83 | 1013.2 |
| 20260903173038 | 69 | 18 | 3.0 | 6.0 | 0.00 | 0.00 | 0.00 | 82 | 1013.3 |
| 20260903172535 | 70 | 37 | 4.0 | 6.0 | 0.00 | 0.00 | 0.00 | 80 | 1013.3 |
| 20260903171809 | 71 | 42 | 2.0 | 4.0 | 0.00 | 0.00 | 0.00 | 80 | 1013.6 |
| 20260903171309 | 69 | 63 | 1.0 | 4.0 | 0.00 | 0.00 | 0.00 | 82 | 1013.7 |
| 20260903170808 | 68 | 30 | 0.0 | 4.0 | 0.00 | 0.00 | 0.00 | 82 | 1013.6 |
| 20260903170308 | 68 | 32 | 0.0 | 6.0 | 0.00 | 0.00 | 0.00 | 84 | 1013.4 |
| 20260903165805 | 68 | 30 | 3.0 | 6.0 | 0.00 | 0.00 | 0.00 | 84 | 1013.4 |
| 20260903165306 | 68 | 327 | 2.0 | 6.0 | 0.00 | 0.00 | 0.00 | 84 | 1013.4 |
| 20260903164805 | 69 | 54 | 2.0 | 6.0 | 0.00 | 0.00 | 0.00 | 83 | 1013.5 |
| 20260903164307 | 69 | 25 | 1.0 | 6.0 | 0.00 | 0.00 | 0.00 | 84 | 1013.3 |
| 20260903163802 | 68 | 34 | 3.0 | 9.0 | 0.00 | 0.00 | 0.00 | 84 | 1013.3 |
| 20260903163302 | 69 | 21 | 4.0 | 9.0 | 0.00 | 0.00 | 0.00 | 84 | 1013.3 |
| 20260903163033 | 68 | 4 | 2.0 | 7.0 | 0.00 | 0.00 | 0.00 | 84 | 1013.3 |
| 20260903162258 | 69 | 30 | 2.0 | 7.0 | 0.00 | 0.00 | 0.00 | 85 | 1013.3 |
| 20260903162030 | 68 | 21 | 2.0 | 7.0 | 0.00 | 0.00 | 0.00 | 84 | 1013.3 |
| 20260903161259 | 69 | 24 | 5.0 | 7.0 | 0.00 | 0.00 | 0.00 | 84 | 1013.2 |
| 20260903161033 | 68 | 121 | 0.0 | 9.0 | 0.00 | 0.00 | 0.00 | 85 | 1013.4 |
| 20260903160256 | 68 | 56 | 4.0 | 9.0 | 0.00 | 0.00 | 0.00 | 85 | 1013.4 |
| 20260903160027 | 69 | 41 | 2.0 | 9.0 | 0.00 | 0.00 | 0.00 | 82 | 1013.4 |
| 20260903155253 | 69 | 78 | 0.0 | 5.0 | 0.00 | 0.00 | 0.00 | 83 | 1013.5 |
| 20260903155021 | 69 | 114 | 0.0 | 5.0 | 0.00 | 0.00 | 0.00 | 83 | 1013.6 |
| 20260903154524 | 68 | 24 | 2.0 | 4.0 | 0.00 | 0.00 | 0.00 | 83 | 1013.5 |
| 20260903153755 | 69 | 286 | 0.0 | 7.0 | 0.00 | 0.00 | 0.00 | 83 | 1013.5 |
| 20260903153254 | 69 | 25 | 3.0 | 7.0 | 0.00 | 0.00 | 0.00 | 82 | 1013.5 |
| 20260903152754 | 69 | 31 | 2.0 | 7.0 | 0.00 | 0.00 | 0.00 | 82 | 1013.5 |
| 20260903152255 | 69 | 32 | 3.0 | 7.0 | 0.00 | 0.00 | 0.00 | 81 | 1013.5 |
| 20260903151752 | 68 | 358 | 0.0 | 6.0 | 0.00 | 0.00 | 0.00 | 84 | 1013.6 |
| 20260903151252 | 69 | 9 | 2.0 | 6.0 | 0.00 | 0.00 | 0.00 | 82 | 1013.4 |
| 20260903150751 | 69 | 27 | 3.0 | 6.0 | 0.00 | 0.00 | 0.00 | 81 | 1013.4 |
| 20260903150250 | 69 | 52 | 2.0 | 6.0 | 0.00 | 0.00 | 0.00 | 80 | 1013.4 |
| 20260903145750 | 70 | 37 | 2.0 | 6.0 | 0.00 | 0.00 | 0.00 | 78 | 1013.4 |
| 20260903145252 | 71 | 47 | 4.0 | 6.0 | 0.00 | 0.00 | 0.00 | 76 | 1013.5 |
| 20260903144821 | 71 | 126 | 1.0 | 4.0 | 0.00 | 0.00 | 0.00 | 76 | 1013.4 |
| 20260903144330 | 69 | 8 | 0.0 | 4.0 | 0.00 | 0.00 | 0.00 | 80 | 1013.4 |
| 20260903143750 | 69 | 52 | 1.0 | 5.0 | 0.00 | 0.00 | 0.00 | 80 | 1013.3 |
| 20260903143312 | 68 | 121 | 0.0 | 6.0 | 0.00 | 0.00 | 0.00 | 81 | 1013.3 |
| 20260903142849 | 69 | 12 | 2.0 | 6.0 | 0.00 | 0.00 | 0.00 | 77 | 1013.4 |
| 20260903142330 | 70 | 25 | 2.0 | 5.0 | 0.00 | 0.00 | 0.00 | 76 | 1013.5 |
| 20260903141759 | 70 | 9 | 2.0 | 4.0 | 0.00 | 0.00 | 0.00 | 74 | 1013.4 |
| 20260903141246 | 70 | 326 | 1.0 | 3.0 | 0.00 | 0.00 | 0.00 | 77 | 1013.4 |
| 20260903141013 | 69 | 344 | 0.0 | 3.0 | 0.00 | 0.00 | 0.00 | 76 | 1013.6 |
| 20260903140242 | 69 | 343 | 0.0 | 3.0 | 0.00 | 0.00 | 0.00 | 77 | 1013.5 |
| 20260903140212 | 69 | 296 | 0.0 | 3.0 | 0.00 | 0.00 | 0.00 | 78 | 1013.5 |
| 20260903135247 | 69 | 305 | 0.0 | 5.0 | 0.00 | 0.00 | 0.00 | 79 | 1013.4 |
| 20260903134744 | 68 | 42 | 1.0 | 5.0 | 0.00 | 0.00 | 0.00 | 80 | 1013.3 |
| 20260903134300 | 68 | 331 | 1.0 | 3.0 | 0.00 | 0.00 | 0.00 | 81 | 1013.3 |
| 20260903133739 | 68 | 217 | 0.0 | 3.0 | 0.00 | 0.00 | 0.00 | 80 | 1013.2 |
| 20260903133240 | 68 | 41 | 0.0 | 3.0 | 0.00 | 0.00 | 0.00 | 80 | 1013.4 |
| 20260903132739 | 68 | 15 | 0.0 | 3.0 | 0.00 | 0.00 | 0.00 | 78 | 1013.4 |
| 20260903132240 | 68 | 355 | 1.0 | 3.0 | 0.00 | 0.00 | 0.00 | 78 | 1013.4 |
| 20260903131739 | 68 | 324 | 0.0 | 3.0 | 0.00 | 0.00 | 0.00 | 78 | 1013.3 |
| 20260903131507 | 68 | 331 | 0.0 | 3.0 | 0.00 | 0.00 | 0.00 | 81 | 1013.4 |
| 20260903130738 | 67 | 317 | 0.0 | 3.0 | 0.00 | 0.00 | 0.00 | 82 | 1013.4 |
| 20260903130507 | 67 | 298 | 0.0 | 3.0 | 0.00 | 0.00 | 0.00 | 83 | 1013.2 |
| 20260903125733 | 68 | 316 | 1.0 | 2.0 | 0.00 | 0.00 | 0.00 | 85 | 1013.3 |
| 20260903125226 | 67 | 303 | 1.0 | 2.0 | 0.00 | 0.00 | 0.00 | 87 | 1013.3 |
| 20260903124727 | 67 | 327 | 0.0 | 2.0 | 0.00 | 0.00 | 0.00 | 89 | 1013.2 |
| 20260903124227 | 66 | 309 | 0.0 | 2.0 | 0.00 | 0.00 | 0.00 | 90 | 1013.3 |
| 20260903123725 | 66 | 95 | 0.0 | 3.0 | 0.00 | 0.00 | 0.00 | 92 | 1013.3 |
| 20260903123223 | 65 | 343 | 1.0 | 4.0 | 0.00 | 0.00 | 0.00 | 94 | 1013.3 |
| 20260903122724 | 64 | 333 | 1.0 | 4.0 | 0.00 | 0.00 | 0.00 | 95 | 1013.5 |
| 20260903122223 | 63 | 283 | 2.0 | 6.0 | 0.00 | 0.00 | 0.00 | 95 | 1013.5 |
| 20260903121722 | 63 | 278 | 2.0 | 6.0 | 0.00 | 0.00 | 0.00 | 96 | 1013.5 |
| 20260903121450 | 62 | 272 | 3.0 | 5.0 | 0.00 | 0.00 | 0.00 | 96 | 1013.4 |
| 20260903120721 | 62 | 267 | 1.0 | 3.0 | 0.00 | 0.00 | 0.00 | 97 | 1013.2 |
| 20260903120223 | 61 | 268 | 1.0 | 4.0 | 0.00 | 0.00 | 0.00 | 97 | 1013.2 |
| 20260903115942 | 61 | 279 | 2.0 | 4.0 | 0.00 | 0.00 | 0.00 | 97 | 1013.2 |
| 20260903115212 | 60 | 269 | 3.0 | 4.0 | 0.00 | 0.00 | 0.00 | 97 | 1013.2 |
| 20260903114711 | 60 | 268 | 2.0 | 3.0 | 0.00 | 0.00 | 0.00 | 96 | 1013.1 |
| 20260903114210 | 60 | 255 | 1.0 | 2.0 | 0.00 | 0.00 | 0.00 | 97 | 1013.0 |
| 20260903113708 | 60 | 259 | 1.0 | 2.0 | 0.00 | 0.00 | 0.00 | 97 | 1012.9 |
| 20260903113208 | 60 | 265 | 0.0 | 2.0 | 0.00 | 0.00 | 0.00 | 96 | 1013.0 |
| 20260903112708 | 60 | 250 | 0.0 | 2.0 | 0.00 | 0.00 | 0.00 | 96 | 1013.0 |
| 20260903112207 | 60 | 247 | 0.0 | 2.0 | 0.00 | 0.00 | 0.00 | 96 | 1013.0 |
| 20260903111707 | 60 | 267 | 1.0 | 3.0 | 0.00 | 0.00 | 0.00 | 96 | 1012.9 |
| 20260903111208 | 60 | 278 | 1.0 | 3.0 | 0.00 | 0.00 | 0.00 | 96 | 1013.0 |
| 20260903110705 | 60 | 264 | 1.0 | 2.0 | 0.00 | 0.00 | 0.00 | 96 | 1013.0 |
| 20260903110212 | 60 | 271 | 1.0 | 3.0 | 0.00 | 0.00 | 0.00 | 96 | 1013.0 |
| 20260903105933 | 60 | 275 | 1.0 | 3.0 | 0.00 | 0.00 | 0.00 | 96 | 1012.9 |
| 20260903105203 | 60 | 290 | 0.0 | 3.0 | 0.00 | 0.00 | 0.00 | 96 | 1012.9 |
| 20260903104703 | 60 | 283 | 1.0 | 3.0 | 0.00 | 0.00 | 0.00 | 96 | 1012.8 |
| 20260903104204 | 60 | 261 | 2.0 | 3.0 | 0.00 | 0.00 | 0.00 | 96 | 1012.9 |
| 20260903103703 | 60 | 265 | 2.0 | 2.0 | 0.00 | 0.00 | 0.00 | 96 | 1012.9 |
| 20260903103203 | 60 | 275 | 1.0 | 3.0 | 0.00 | 0.00 | 0.00 | 96 | 1012.8 |
| 20260903102702 | 60 | 282 | 2.0 | 4.0 | 0.00 | 0.00 | 0.00 | 96 | 1012.9 |
| 20260903102202 | 60 | 275 | 2.0 | 5.0 | 0.00 | 0.00 | 0.00 | 96 | 1012.9 |
| 20260903101703 | 61 | 275 | 3.0 | 5.0 | 0.00 | 0.00 | 0.00 | 96 | 1012.9 |
| 20260903101202 | 60 | 285 | 2.0 | 5.0 | 0.00 | 0.00 | 0.00 | 95 | 1012.9 |
| 20260903100702 | 60 | 298 | 4.0 | 5.0 | 0.00 | 0.00 | 0.00 | 95 | 1013.0 |
| 20260903100203 | 60 | 276 | 2.0 | 4.0 | 0.00 | 0.00 | 0.00 | 95 | 1012.9 |
| 20260903095702 | 60 | 278 | 2.0 | 4.0 | 0.00 | 0.00 | 0.00 | 95 | 1012.8 |
| 20260903095201 | 60 | 275 | 2.0 | 4.0 | 0.00 | 0.00 | 0.00 | 95 | 1012.8 |
| 20260903094657 | 60 | 283 | 1.0 | 3.0 | 0.00 | 0.00 | 0.00 | 94 | 1012.8 |
| 20260903094423 | 60 | 274 | 2.0 | 3.0 | 0.00 | 0.00 | 0.00 | 94 | 1012.7 |
| 20260903093658 | 60 | 252 | 1.0 | 4.0 | 0.00 | 0.00 | 0.00 | 94 | 1012.7 |
| 20260903093159 | 60 | 268 | 2.0 | 4.0 | 0.00 | 0.00 | 0.00 | 94 | 1012.9 |
| 20260903092656 | 60 | 282 | 2.0 | 3.0 | 0.00 | 0.00 | 0.00 | 94 | 1012.9 |
| 20260903092157 | 60 | 265 | 2.0 | 3.0 | 0.00 | 0.00 | 0.00 | 94 | 1012.8 |
| 20260903091653 | 60 | 274 | 1.0 | 2.0 | 0.00 | 0.00 | 0.00 | 94 | 1012.8 |
| 20260903091427 | 60 | 300 | 1.0 | 2.0 | 0.00 | 0.00 | 0.00 | 93 | 1012.7 |
| 20260903090919 | 60 | 275 | 1.0 | 2.0 | 0.00 | 0.00 | 0.00 | 93 | 1012.6 |
| 20260903090156 | 60 | 269 | 1.0 | 2.0 | 0.00 | 0.00 | 0.00 | 93 | 1012.6 |
| 20260903085923 | 60 | 275 | 0.0 | 2.0 | 0.00 | 0.00 | 0.00 | 93 | 1012.7 |
| 20260903085425 | 60 | 272 | 1.0 | 2.0 | 0.00 | 0.00 | 0.00 | 93 | 1012.7 |
| 20260903084649 | 60 | 286 | 0.0 | 1.0 | 0.00 | 0.00 | 0.00 | 93 | 1012.7 |
| 20260903084420 | 60 | 288 | 0.0 | 0.0 | 0.00 | 0.00 | 0.00 | 93 | 1012.7 |
| 20260903083650 | 60 | 292 | 0.0 | 2.0 | 0.00 | 0.00 | 0.00 | 92 | 1012.6 |
| 20260903083148 | 61 | 272 | 0.0 | 2.0 | 0.00 | 0.00 | 0.00 | 92 | 1012.6 |
| 20260903082647 | 61 | 269 | 0.0 | 1.0 | 0.00 | 0.00 | 0.00 | 92 | 1012.5 |
| 20260903082148 | 61 | 268 | 0.0 | 2.0 | 0.00 | 0.00 | 0.00 | 92 | 1012.4 |
| 20260903081649 | 61 | 271 | 1.0 | 2.0 | 0.00 | 0.00 | 0.00 | 91 | 1012.6 |
| 20260903081151 | 61 | 271 | 1.0 | 2.0 | 0.00 | 0.00 | 0.00 | 91 | 1012.6 |
| 20260903080646 | 61 | 314 | 0.0 | 2.0 | 0.00 | 0.00 | 0.00 | 91 | 1012.7 |
| 20260903080153 | 62 | 264 | 0.0 | 2.0 | 0.00 | 0.00 | 0.00 | 90 | 1012.6 |
| 20260903075512 | 62 | 259 | 0.0 | 2.0 | 0.00 | 0.00 | 0.00 | 90 | 1012.6 |
| 20260903075014 | 62 | 257 | 0.0 | 2.0 | 0.00 | 0.00 | 0.00 | 90 | 1012.6 |
| 20260903074510 | 62 | 264 | 0.0 | 2.0 | 0.00 | 0.00 | 0.00 | 90 | 1012.6 |
| 20260903074010 | 62 | 264 | 0.0 | 3.0 | 0.00 | 0.00 | 0.00 | 90 | 1012.5 |
| 20260903073735 | 63 | 265 | 2.0 | 3.0 | 0.00 | 0.00 | 0.00 | 90 | 1012.5 |
| 20260903073232 | 63 | 302 | 0.0 | 3.0 | 0.00 | 0.00 | 0.00 | 90 | 1012.5 |
| 20260903072508 | 63 | 303 | 0.0 | 3.0 | 0.00 | 0.00 | 0.00 | 90 | 1012.4 |
| 20260903072008 | 63 | 290 | 0.0 | 2.0 | 0.00 | 0.00 | 0.00 | 90 | 1012.4 |
| 20260903071731 | 63 | 283 | 0.0 | 2.0 | 0.00 | 0.00 | 0.00 | 90 | 1012.4 |
| 20260903071234 | 63 | 320 | 0.0 | 3.0 | 0.00 | 0.00 | 0.00 | 90 | 1012.4 |
| 20260903070504 | 62 | 282 | 0.0 | 3.0 | 0.00 | 0.00 | 0.00 | 91 | 1012.4 |
| 20260903070005 | 62 | 282 | 2.0 | 4.0 | 0.00 | 0.00 | 0.00 | 91 | 1012.3 |
| 20260903065742 | 62 | 276 | 3.0 | 4.0 | 0.00 | 0.00 | 0.00 | 91 | 1012.4 |
| 20260903065233 | 62 | 275 | 2.0 | 3.0 | 0.00 | 0.00 | 0.00 | 91 | 1012.3 |
| 20260903064503 | 62 | 283 | 1.0 | 3.0 | 0.00 | 0.00 | 0.00 | 91 | 1012.3 |
| 20260903064006 | 62 | 278 | 1.0 | 3.0 | 0.00 | 0.00 | 0.00 | 90 | 1012.3 |
| 20260903063503 | 62 | 282 | 1.0 | 3.0 | 0.00 | 0.00 | 0.00 | 90 | 1012.3 |
| 20260903063006 | 62 | 276 | 2.0 | 4.0 | 0.00 | 0.00 | 0.00 | 90 | 1012.3 |
| 20260903062503 | 63 | 275 | 3.0 | 4.0 | 0.00 | 0.00 | 0.00 | 90 | 1012.2 |
| 20260903062002 | 63 | 271 | 3.0 | 5.0 | 0.00 | 0.00 | 0.00 | 90 | 1012.2 |
| 20260903061502 | 63 | 262 | 3.0 | 5.0 | 0.00 | 0.00 | 0.00 | 90 | 1012.1 |
| 20260903061003 | 63 | 278 | 2.0 | 4.0 | 0.00 | 0.00 | 0.00 | 90 | 1012.1 |
| 20260903060502 | 63 | 264 | 2.0 | 3.0 | 0.00 | 0.00 | 0.00 | 90 | 1012.1 |
| 20260903060001 | 63 | 295 | 2.0 | 3.0 | 0.00 | 0.00 | 0.00 | 90 | 1011.9 |
| 20260903055502 | 63 | 264 | 1.0 | 3.0 | 0.00 | 0.00 | 0.00 | 91 | 1011.9 |
| 20260903055239 | 63 | 275 | 2.0 | 3.0 | 0.00 | 0.00 | 0.00 | 91 | 1011.9 |
| 20260903054503 | 63 | 306 | 1.0 | 3.0 | 0.00 | 0.00 | 0.00 | 91 | 1011.9 |
| 20260903054003 | 63 | 312 | 1.0 | 4.0 | 0.00 | 0.00 | 0.00 | 92 | 1011.9 |
| 20260903053504 | 63 | 289 | 1.0 | 4.0 | 0.00 | 0.00 | 0.00 | 92 | 1011.9 |
| 20260903053006 | 63 | 298 | 2.0 | 4.0 | 0.00 | 0.00 | 0.00 | 93 | 1011.8 |
| 20260903052502 | 63 | 326 | 2.0 | 4.0 | 0.00 | 0.00 | 0.00 | 93 | 1011.8 |
| 20260903052002 | 63 | 290 | 2.0 | 4.0 | 0.00 | 0.00 | 0.00 | 93 | 1011.7 |
| 20260903051501 | 63 | 279 | 1.0 | 3.0 | 0.00 | 0.00 | 0.00 | 93 | 1011.7 |
| 20260903051003 | 63 | 290 | 1.0 | 2.0 | 0.00 | 0.00 | 0.00 | 93 | 1011.8 |
| 20260903050502 | 63 | 303 | 1.0 | 3.0 | 0.00 | 0.00 | 0.00 | 93 | 1011.7 |
| 20260903045959 | 63 | 281 | 1.0 | 4.0 | 0.00 | 0.00 | 0.00 | 93 | 1011.7 |
| 20260903045500 | 63 | 336 | 2.0 | 5.0 | 0.00 | 0.00 | 0.00 | 93 | 1011.6 |
| 20260903045000 | 63 | 278 | 3.0 | 5.0 | 0.00 | 0.00 | 0.00 | 93 | 1011.6 |
| 20260903044459 | 63 | 286 | 3.0 | 5.0 | 0.00 | 0.00 | 0.00 | 93 | 1011.5 |
| 20260903044000 | 63 | 281 | 3.0 | 4.0 | 0.00 | 0.00 | 0.00 | 93 | 1011.5 |
| 20260903043501 | 63 | 275 | 3.0 | 4.0 | 0.00 | 0.00 | 0.00 | 93 | 1011.5 |
| 20260903042956 | 64 | 275 | 2.0 | 3.0 | 0.00 | 0.00 | 0.00 | 93 | 1011.4 |
| 20260903042455 | 64 | 282 | 1.0 | 3.0 | 0.00 | 0.00 | 0.00 | 93 | 1011.4 |
| 20260903041954 | 64 | 282 | 1.0 | 2.0 | 0.00 | 0.00 | 0.00 | 93 | 1011.5 |
| 20260903041455 | 64 | 276 | 1.0 | 3.0 | 0.00 | 0.00 | 0.00 | 93 | 1011.4 |
| 20260903040952 | 64 | 275 | 0.0 | 3.0 | 0.00 | 0.00 | 0.00 | 92 | 1011.5 |
| 20260903040452 | 64 | 274 | 2.0 | 3.0 | 0.00 | 0.00 | 0.00 | 92 | 1011.6 |
| 20260903035951 | 64 | 267 | 2.0 | 3.0 | 0.00 | 0.00 | 0.00 | 92 | 1011.5 |
| 20260903035721 | 64 | 261 | 1.0 | 2.0 | 0.00 | 0.00 | 0.00 | 92 | 1011.5 |
| 20260903035221 | 64 | 271 | 1.0 | 2.0 | 0.00 | 0.00 | 0.00 | 92 | 1011.5 |
| 20260903034451 | 64 | 272 | 2.0 | 2.0 | 0.00 | 0.00 | 0.00 | 92 | 1011.6 |
| 20260903033952 | 64 | 257 | 1.0 | 2.0 | 0.00 | 0.00 | 0.00 | 91 | 1011.7 |
| 20260903033451 | 64 | 259 | 1.0 | 2.0 | 0.00 | 0.00 | 0.00 | 91 | 1011.7 |
| 20260903032950 | 65 | 275 | 0.0 | 2.0 | 0.00 | 0.00 | 0.00 | 91 | 1011.6 |
| 20260903032451 | 65 | 268 | 1.0 | 2.0 | 0.00 | 0.00 | 0.00 | 90 | 1011.7 |
| 20260903031951 | 65 | 268 | 1.0 | 2.0 | 0.00 | 0.00 | 0.00 | 90 | 1011.7 |
| 20260903031452 | 65 | 265 | 1.0 | 3.0 | 0.00 | 0.00 | 0.00 | 90 | 1011.6 |
| 20260903031218 | 65 | 269 | 1.0 | 3.0 | 0.00 | 0.00 | 0.00 | 90 | 1011.7 |
| 20260903030449 | 65 | 281 | 0.0 | 2.0 | 0.00 | 0.00 | 0.00 | 89 | 1011.7 |
| 20260903025947 | 66 | 278 | 0.0 | 2.0 | 0.00 | 0.00 | 0.00 | 89 | 1011.7 |
| 20260903025446 | 66 | 292 | 0.0 | 3.0 | 0.00 | 0.00 | 0.00 | 88 | 1011.7 |
| 20260903024946 | 66 | 272 | 1.0 | 4.0 | 0.00 | 0.00 | 0.00 | 88 | 1011.6 |
| 20260903024711 | 66 | 271 | 2.0 | 4.0 | 0.00 | 0.00 | 0.00 | 87 | 1011.6 |
| 20260903023945 | 67 | 278 | 2.0 | 4.0 | 0.00 | 0.00 | 0.00 | 86 | 1011.7 |
| 20260903023445 | 67 | 258 | 2.0 | 2.0 | 0.00 | 0.00 | 0.00 | 86 | 1011.6 |
| 20260903022945 | 67 | 251 | 1.0 | 2.0 | 0.00 | 0.00 | 0.00 | 85 | 1011.5 |
| 20260903022443 | 67 | 271 | 0.0 | 2.0 | 0.00 | 0.00 | 0.00 | 85 | 1011.6 |
| 20260903022216 | 67 | 286 | 1.0 | 3.0 | 0.00 | 0.00 | 0.00 | 85 | 1011.6 |
| 20260903021442 | 68 | 306 | 0.0 | 3.0 | 0.00 | 0.00 | 0.00 | 85 | 1011.5 |
| 20260903020939 | 68 | 302 | 1.0 | 3.0 | 0.00 | 0.00 | 0.00 | 85 | 1011.5 |
| 20260903020439 | 68 | 322 | 0.0 | 2.0 | 0.00 | 0.00 | 0.00 | 85 | 1011.4 |
| 20260903015936 | 68 | 323 | 0.0 | 4.0 | 0.00 | 0.00 | 0.00 | 86 | 1011.4 |
| 20260903015434 | 68 | 320 | 1.0 | 4.0 | 0.00 | 0.00 | 0.00 | 86 | 1011.3 |
| 20260903014935 | 68 | 329 | 0.0 | 3.0 | 0.00 | 0.00 | 0.00 | 87 | 1011.4 |
| 20260903014434 | 68 | 312 | 0.0 | 2.0 | 0.00 | 0.00 | 0.00 | 87 | 1011.3 |
| 20260903013934 | 68 | 314 | 0.0 | 2.0 | 0.00 | 0.00 | 0.00 | 87 | 1011.4 |
| 20260903013434 | 68 | 351 | 0.0 | 2.0 | 0.00 | 0.00 | 0.00 | 87 | 1011.4 |
| 20260903012936 | 68 | 293 | 0.0 | 0.0 | 0.00 | 0.00 | 0.00 | 87 | 1011.3 |
| 20260903012433 | 68 | 292 | 0.0 | 0.0 | 0.00 | 0.00 | 0.00 | 87 | 1011.3 |
| 20260903012158 | 69 | 292 | 0.0 | 0.0 | 0.00 | 0.00 | 0.00 | 87 | 1011.3 |
| 20260903011701 | 69 | 292 | 0.0 | 2.0 | 0.00 | 0.00 | 0.00 | 86 | 1011.3 |
| 20260903010932 | 69 | 25 | 0.0 | 2.0 | 0.00 | 0.00 | 0.00 | 86 | 1011.3 |
| 20260903010431 | 69 | 21 | 0.0 | 1.0 | 0.00 | 0.00 | 0.00 | 86 | 1011.2 |
| 20260903005931 | 69 | 302 | 0.0 | 1.0 | 0.00 | 0.00 | 0.00 | 86 | 1011.0 |
| 20260903005430 | 69 | 49 | 0.0 | 0.0 | 0.00 | 0.00 | 0.00 | 86 | 1010.9 |
| 20260903004429 | 69 | 59 | 0.0 | 4.0 | 0.00 | 0.00 | 0.00 | 86 | 1010.9 |
| 20260903003930 | 69 | 41 | 1.0 | 3.0 | 0.00 | 0.00 | 0.00 | 85 | 1010.9 |
| 20260903003655 | 69 | 319 | 0.0 | 3.0 | 0.00 | 0.00 | 0.00 | 85 | 1010.9 |
| 20260903002928 | 69 | 25 | 0.0 | 3.0 | 0.00 | 0.00 | 0.00 | 85 | 1010.8 |
| 20260903002427 | 70 | 17 | 1.0 | 2.0 | 0.00 | 0.00 | 0.00 | 84 | 1010.8 |
| 20260903001925 | 70 | 322 | 0.0 | 0.0 | 0.00 | 0.00 | 0.00 | 84 | 1010.8 |
| 20260903001425 | 70 | 322 | 0.0 | 1.0 | 0.00 | 0.00 | 0.00 | 84 | 1010.7 |
| 20260903001153 | 70 | 322 | 0.0 | 1.0 | 0.00 | 0.00 | 0.00 | 83 | 1010.8 |
| 20260903000426 | 70 | 21 | 0.0 | 2.0 | 0.00 | 0.00 | 0.00 | 83 | 1010.8 |
| 20260902235923 | 71 | 40 | 1.0 | 2.0 | 0.00 | 0.00 | 0.00 | 83 | 1010.7 |
| 20260902235418 | 71 | 326 | 0.0 | 0.0 | 0.00 | 0.00 | 0.00 | 82 | 1010.7 |
| 20260902234918 | 71 | 326 | 0.0 | 0.0 | 0.00 | 0.00 | 0.00 | 82 | 1010.6 |
| 20260902233918 | 71 | 340 | 0.0 | 1.0 | 0.00 | 0.00 | 0.00 | 81 | 1010.6 |